Vorticity
6 6 8 6 2 4 11 8 11 10 9 10 12 14 13 13 12 10 11 9 11 18 14 8 10 6 4 6 7 21 -1 9 7 -0 2 1 2 9 8 13 6 5 8 -7 14
2 7 9 12 7 9 -1 6 6 8 11 7 8 10 13 15 15 19 12 10 11 15 13 14 12 16 10 13 5 -8 5 1 -5 10 13 2 5 1 26 16 14 2 19 2 17
2 4 4 7 12 5 4 6 9 7 10 4 4 6 8 17 17 25 22 27 23 24 17 8 14 12 12 9 14 8 -0 -1 7 23 -1 -1 -5 28 2 14 7 -5 9 5 2
4 -3 7 -0 3 8 10 5 10 8 7 8 2 6 8 8 25 -1 -4 -1 6 15 26 23 16 6 1 2 2 -1 14 4 12 -14 4 13 -1 5 -3 13 10 6 8 4 8
6 6 1 4 9 5 3 6 3 6 4 7 4 5 7 9 13 30 15 14 7 -3 -14 -11 26 19 10 -2 12 -7 4 1 9 8 12 -4 3 18 3 -3 19 -6 32 5 19
5 1 7 6 10 8 1 7 8 4 3 -1 -0 4 10 4 15 -1 3 12 26 16 6 8 12 22 2 18 -0 13 25 3 6 5 -1 5 9 -6 14 4 14 -10 11 22 7
5 6 5 -1 1 5 11 7 2 6 6 3 8 4 7 6 6 13 11 8 13 3 27 20 22 -3 9 30 18 9 -1 -1 12 6 0 7 2 13 0 10 -5 11 3 16 10
5 8 10 9 17 8 8 6 3 6 -3 -3 6 21 -3 15 27 28 26 29 18 14 -0 24 14 10 10 -3 -11 28 17 14 -11 7 10 21 6 -4 13 2 0 -4 1 12 5
4 5 9 13 9 11 8 6 5 1 -3 23 31 12 26 3 1 8 9 12 27 27 25 19 7 2 -2 13 2 -2 -2 12 12 6 -19 9 9 29 -8 17 14 -2 8 15 9
6 4 6 27 13 10 8 7 4 8 17 15 16 18 25 10 5 6 11 15 -1 -13 5 20 26 11 7 4 -11 7 14 11 17 23 21 8 3 -8 32 2 12 19 -1 -4 7
7 9 22 13 19 7 12 9 13 11 6 16 -10 1 29 1 4 -2 -6 -4 7 12 5 -1 17 1 9 11 -3 -24 6 0 7 14 3 6 16 -8 4 15 16 8 -0 0 6
10 15 16 13 16 11 7 9 18 -22 3 -2 9 2 18 16 18 51 35 30 31 24 26 7 -4 9 24 20 23 9 15 9 2 5 4 10 7 21 5 7 3 19 11 3 7
15 19 21 26 12 12 16 23 18 20 12 22 32 23 21 27 25 12 9 9 9 10 11 9 -6 5 35 5 16 5 11 2 -13 1 6 17 8 15 22 16 6 0 18 9 -1
16 22 32 23 13 12 8 21 31 7 30 19 32 24 16 7 9 15 5 2 3 7 1 26 41 41 28 7 14 6 20 -7 6 3 11 -22 16 51 2 3 26 6 11 -7 6
14 14 21 19 10 23 24 26 27 23 19 12 6 -4 4 5 -4 13 13 10 6 -4 1 -11 -22 -17 -6 22 8 10 18 11 11 11 8 11 1 48 13 25 12 15 4 5 13
14 18 5 14 9 5 21 35 30 26 12 8 2 11 20 10 2 -8 5 8 3 14 12 6 19 8 9 6 6 16 28 -7 28 8 41 4 -28 73 7 -2 21 -7 27 15 2
12 8 28 20 10 24 35 9 4 4 6 18 7 9 4 2 4 15 19 17 -0 6 7 1 7 12 12 5 23 -15 8 37 32 33 2 45 17 -41 2 16 11 11 15 5 2
15 15 24 15 21 32 17 8 10 27 -3 -5 -0 2 -2 -3 27 11 5 4 18 14 15 16 40 30 31 24 21 18 -4 -68 4 23 13 11 -0 18 -7 15 10 12 20 28 23
13 31 12 10 27 18 26 23 6 12 17 9 6 15 17 22 6 15 14 8 19 15 17 14 7 -8 8 -5 7 54 -3 37 -5 -31 21 9 41 38 35 -5 -24 30 9 17 13
26 18 9 32 6 6 19 -17 -11 8 -7 -6 10 7 3 -1 4 7 16 6 9 -1 11 13 38 24 14 9 29 36 15 16 31 26 7 25 -8 -37 12 40 15 -31 15 -4 19
14 20 7 17 10 6 8 -6 8 3 12 18 13 4 3 1 6 10 7 -4 22 12 -8 6 31 -17 11 24 17 41 20 -18 0 0 -9 -17 -9 79 3 21 9 40 27 -4 -3
54 -6 8 2 10 2 7 13 12 3 4 12 7 5 -5 -2 12 4 -4 -3 -30 -1 14 25 2 13 9 34 3 26 61 48 -3 3 -3 -8 -1 -75 29 26 23 32 16 8 21
-2 17 18 25 7 9 7 9 6 3 7 6 9 19 16 11 3 28 34 34 9 9 4 10 -8 24 23 55 -45 21 14 -9 13 24 14 1 25 4 3 94 28 19 33 10 28
8 16 -3 7 25 11 19 7 15 11 19 23 -2 8 3 3 4 -7 5 -5 6 -5 5 14 17 -9 -24 -23 -7 3 3 16 12 11 -14 21 14 -42 -40 1 44 5 23 29 12
-0 10 3 -35 -11 7 8 20 -0 16 10 24 13 11 17 3 22 9 9 6 5 7 20 13 -2 15 18 -4 14 15 19 12 2 5 11 -20 39 53 -20 -36 7 36 22 28 24
14 33 -17 8 9 -0 28 -3 30 -14 2 -11 10 13 16 18 -4 -22 -15 -9 -2 1 -8 -0 12 -6 23 27 18 -4 6 6 1 5 12 18 34 44 31 -8 25 36 4 13 64
7 10 11 8 2 24 -9 29 12 44 -0 29 19 20 5 5 9 3 5 3 -3 3 0 -2 3 -2 16 -3 1 52 51 11 43 -3 6 6 7 17 20 50 4 42 32 28 8
Height
3116 3112 3108 3103 3098 3094 3090 3086 3081 3077 3072 3067 3063 3059 3055 3053 3053 3051 3050 3050 3048 3053 3052 3052 3053 3056 3060 3062 3067 3071 3069 3062 3064 3070 3072 3079 3081 3081 3082 3082 3085 3089 3091 3088 3091
3113 3109 3104 3100 3095 3090 3086 3081 3077 3072 3067 3062 3057 3053 3049 3048 3045 3044 3040 3040 3041 3042 3043 3044 3046 3052 3051 3054 3057 3058 3054 3050 3062 3066 3069 3074 3077 3077 3077 3078 3080 3084 3084 3083 3088
3106 3101 3096 3092 3089 3085 3081 3077 3072 3066 3061 3056 3051 3046 3045 3044 3038 3030 3033 3032 3031 3032 3034 3036 3040 3045 3045 3048 3048 3049 3039 3050 3055 3060 3064 3067 3068 3071 3072 3073 3075 3078 3077 3079 3086
3099 3093 3089 3084 3080 3077 3075 3072 3067 3061 3056 3050 3045 3040 3039 3040 3040 3023 3028 3026 3026 3027 3027 3028 3032 3033 3037 3037 3044 3044 3040 3045 3049 3055 3056 3059 3063 3063 3066 3068 3072 3077 3073 3076 3081
3092 3086 3080 3075 3070 3066 3064 3063 3061 3056 3050 3045 3038 3033 3030 3032 3030 3028 3019 3019 3021 3022 3022 3023 3024 3029 3027 3034 3037 3032 3035 3041 3045 3047 3049 3053 3051 3056 3057 3062 3066 3069 3068 3068 3074
3085 3078 3071 3066 3061 3056 3051 3048 3051 3049 3042 3037 3032 3027 3024 3022 3020 3018 3015 3013 3013 3012 3014 3016 3018 3020 3019 3024 3028 3029 3033 3035 3038 3039 3042 3044 3045 3048 3050 3056 3060 3062 3061 3062 3068
3076 3070 3063 3058 3053 3047 3043 3038 3037 3039 3036 3030 3025 3019 3012 3016 3012 3009 3006 3002 3005 3004 3004 3008 3012 3013 3015 3016 3019 3023 3025 3025 3025 3029 3031 3040 3035 3031 3043 3049 3051 3055 3057 3058 3063
3070 3063 3056 3050 3044 3039 3033 3028 3025 3025 3025 3020 3016 3009 2999 3010 3003 3000 2997 2996 2996 2997 2999 3003 3005 3006 3008 3013 3013 3015 3018 3014 3008 3020 3022 3034 3010 3027 3035 3040 3042 3048 3052 3054 3057
3061 3053 3047 3041 3034 3027 3021 3015 3012 3011 3010 3006 3005 3000 2997 2998 2998 2994 2992 2991 2989 2991 2992 2996 2998 2999 3003 3007 3010 3005 2999 2998 3001 3009 3016 3020 3009 3019 3029 3032 3034 3038 3044 3048 3050
3052 3044 3036 3030 3024 3017 3012 3006 3003 2998 2998 2997 2994 2997 2996 2993 2989 2986 2987 2987 2987 2987 2989 2990 2991 2991 2993 2996 2984 2988 2994 2996 2994 3004 3011 3012 3006 3014 3020 3024 3028 3031 3035 3040 3044
3041 3032 3025 3020 3014 3007 3004 2998 2994 2991 2986 2988 2985 2983 2990 2983 2981 2977 2983 2981 2983 2983 2984 2987 2986 2973 2974 2985 2990 2995 2994 2991 2992 2999 3005 3000 2999 3007 3012 3016 3018 3022 3026 3032 3037
3028 3020 3014 3007 3000 2996 2993 2989 2983 2982 2979 2980 2979 2975 2975 2977 2971 2975 2973 2976 2974 2975 2979 2982 2970 2976 2985 2988 2988 2990 2989 2982 2985 2990 2997 2993 2988 2997 3002 3001 3007 3012 3017 3023 3031
3015 3007 3001 2994 2988 2984 2981 2978 2973 2972 2972 2972 2973 2971 2970 2971 2970 2971 2972 2972 2972 2973 2975 2972 2970 2978 2980 2981 2981 2981 2981 2975 2977 2988 2987 2988 2982 2986 2989 2994 2997 3003 3008 3015 3020
3002 2994 2989 2984 2981 2976 2973 2970 2967 2965 2968 2967 2966 2966 2967 2968 2969 2969 2970 2972 2972 2972 2974 2968 2966 2968 2971 2971 2974 2970 2971 2975 2976 2984 2980 2983 2972 2974 2978 2982 2986 2992 2998 3003 3010
2994 2984 2982 2975 2975 2970 2970 2964 2962 2965 2970 2968 2965 2965 2965 2969 2968 2968 2968 2968 2968 2969 2974 2962 2964 2966 2965 2962 2971 2963 2972 2972 2974 2975 2977 2972 2973 2955 2968 2970 2976 2980 2986 2994 3001
2988 2975 2970 2968 2965 2965 2962 2960 2960 2968 2965 2966 2965 2964 2966 2966 2967 2966 2967 2967 2967 2964 2966 2959 2961 2962 2957 2959 2963 2964 2964 2964 2967 2968 2963 2957 2972 2950 2957 2957 2963 2969 2976 2983 2991
2982 2970 2964 2961 2961 2959 2958 2958 2964 2964 2964 2965 2965 2965 2965 2964 2965 2964 2964 2965 2966 2965 2960 2958 2955 2955 2956 2954 2956 2957 2960 2958 2960 2955 2941 2950 2956 2945 2949 2952 2955 2960 2967 2973 2980
2974 2967 2961 2960 2958 2957 2958 2962 2963 2961 2960 2959 2961 2963 2962 2963 2962 2960 2959 2958 2961 2961 2957 2955 2946 2947 2945 2947 2946 2944 2950 2946 2946 2940 2933 2932 2931 2923 2936 2942 2949 2952 2958 2963 2969
2965 2958 2956 2955 2954 2955 2957 2958 2960 2959 2959 2958 2959 2960 2959 2959 2960 2957 2956 2955 2955 2955 2956 2950 2943 2940 2936 2937 2940 2932 2936 2939 2943 2935 2933 2925 2924 2922 2926 2933 2938 2945 2949 2953 2958
2962 2956 2953 2954 2951 2953 2956 2958 2957 2956 2955 2957 2957 2959 2958 2958 2957 2956 2952 2952 2953 2954 2950 2947 2940 2935 2930 2929 2924 2921 2929 2935 2931 2932 2929 2916 2918 2913 2916 2918 2924 2934 2939 2945 2951
2957 2954 2951 2953 2954 2957 2957 2955 2952 2951 2953 2955 2953 2953 2954 2954 2954 2954 2951 2949 2950 2950 2948 2946 2942 2931 2929 2924 2921 2920 2923 2925 2920 2921 2921 2916 2902 2894 2904 2909 2913 2922 2928 2935 2942
2957 2957 2954 2954 2956 2952 2950 2948 2947 2946 2948 2949 2949 2948 2948 2950 2947 2949 2946 2947 2948 2946 2944 2944 2939 2933 2924 2917 2920 2915 2914 2920 2920 2913 2913 2915 2895 2892 2901 2902 2905 2911 2916 2923 2932
2958 2954 2950 2952 2950 2946 2944 2943 2942 2942 2942 2942 2943 2943 2944 2946 2945 2941 2941 2943 2944 2943 2942 2941 2939 2933 2921 2914 2916 2917 2913 2911 2913 2912 2911 2916 2882 2892 2896 2898 2902 2907 2911 2916 2923
2954 2950 2945 2943 2941 2940 2939 2938 2936 2936 2936 2938 2938 2940 2941 2941 2943 2938 2938 2940 2941 2940 2941 2938 2936 2936 2934 2930 2926 2919 2915 2914 2912 2910 2909 2894 2886 2893 2893 2895 2905 2904 2905 2909 2914
2948 2943 2940 2937 2935 2936 2937 2934 2932 2931 2932 2932 2932 2932 2935 2936 2935 2934 2935 2937 2937 2935 2935 2934 2931 2931 2927 2925 2923 2919 2913 2911 2910 2909 2901 2893 2885 2897 2898 2899 2893 2903 2901 2903 2909
2940 2937 2934 2933 2931 2930 2930 2928 2926 2927 2928 2927 2926 2929 2925 2929 2929 2931 2932 2934 2932 2932 2931 2930 2926 2927 2921 2918 2916 2913 2908 2906 2902 2900 2893 2888 2868 2891 2898 2901 2901 2900 2900 2903 2906
2928 2931 2930 2925 2924 2924 2921 2921 2921 2921 2921 2920 2921 2923 2922 2922 2925 2927 2925 2925 2927 2926 2927 2926 2924 2924 2916 2917 2914 2908 2899 2898 2894 2894 2895 2887 2881 2887 2892 2897 2895 2899 2900 2903 2906